Regional Weather Roundup
Issued by NWS Upton, NY

Current Version | Previous Version | Text Only | Print | Product List | Glossary On
Versions: 1 2 3 4 5 6 7 8 9 10 11 12 13 14 15 16 17 18 19 20 21 22 23 24 25 26 27
000
ASUS41 KOKX 230108
RWROKX

REGIONAL WEATHER ROUNDUP
NATIONAL WEATHER SERVICE NEW YORK NY
800 PM EST SUN JAN 22 2017

NOTE: "FAIR" INDICATES FEW OR NO CLOUDS BELOW 12,000 FEET WITH NO
SIGNIFICANT WEATHER AND/OR OBSTRUCTIONS TO VISIBILITY.

NYZ071-072-176-178-NJZ106-104-230200-
NEW YORK CITY METRO AREA

CITY           SKY/WX    TMP DP  RH WIND       PRES   REMARKS
Central Park   CLOUDY    47  43  86 E12G17    29.78R
Wall St Helipt CLOUDY    47  43  86 NE14      29.74F
LaGuardia APRT CLOUDY    45  41  86 NE10      29.76R
Kennedy INTL   CLOUDY    48  46  93 E15       29.76R
Breezy Point     N/A     43 N/A N/A E16G26      N/A
Newark/Liberty CLOUDY    49  45  86 NE6       29.74S
Teterboro      CLOUDY    49  41  74 E10G21    29.75S
$$

NYZ177-179-078>081-230200-
LONG ISLAND NEW YORK

CITY           SKY/WX    TMP DP  RH WIND       PRES   REMARKS
Jones Beach      N/A     45 N/A N/A E20G25      N/A
Matinecock PT    N/A     45 N/A N/A E24         N/A
Farmingdale    CLOUDY    49  41  74 E15G23    29.78R
MacArthur/ISP  CLOUDY    47  41  80 E16G25    29.79R
Shirley        CLOUDY    46  41  82 VRB7      29.81R
Westhampton    CLOUDY    46  40  79 E16G23    29.82R
Southampton    NOT AVBL
Bridgehampton  NOT AVBL
East Hampton   CLOUDY    44  40  84 E15G23    29.83R
Montauk          N/A     44  41  89 NE14G25   29.84R
$$

NYZ052-065-067-230200-
HUDSON VALLEY

CITY           SKY/WX    TMP DP  RH WIND       PRES   REMARKS
White Plains   MOCLDY    47  41  80 E7        29.76S
Newburgh       CLOUDY    48  45  87 NE14G20   29.78R
Montgomery     CLOUDY    48  43  82 NE10      29.75S
Poughkeepsie   CLOUDY    48  40  73 E9        29.79R
Albany         CLOUDY    38  34  85 N5        29.86R WCI  34
$$

NJZ001-105-106-008-010-013-015-019>022-104-230200-
NEW JERSEY

CITY           SKY/WX    TMP DP  RH WIND       PRES   REMARKS
Newark/Liberty CLOUDY    49  45  86 NE6       29.74S
Teterboro      CLOUDY    49  41  74 E10G21    29.75S
Caldwell       CLOUDY    49  43  80 E13       29.75S
Somerville     CLOUDY    49  45  86 CALM      29.73R
Linden         CLOUDY    48  44  85 E8        29.75S
Sussex         CLOUDY    48  46  93 NE5       29.74F
Andover          N/A     45  44  97 N3        29.74R
Trenton        LGT RAIN  47  45  93 E12G22    29.72R
Millville      CLOUDY    49  49 100 NE13      29.65F FOG
Atlantic City  FOG       48  46  93 NE15G26   29.67S VSB 1/2
Wrightstown    DRIZZLE   46  45  97 NE16G29   29.68F FOG
Toms River     CLOUDY    46  45  96 NE10G22   29.72S
Belmar         LGT RAIN  45  43  93 NE20G30   29.73S
$$

PAZ047>061-062-071-230200-
EASTERN PENNSYLVANIA

CITY           SKY/WX    TMP DP  RH WIND       PRES   REMARKS
Philadelphia   CLOUDY    48  46  93 NE10      29.69F
Allentown      CLOUDY    50  45  83 E13       29.71S
Scranton       CLOUDY    51  48  89 E10       29.70R
$$

CTZ002-004>006-009-010-012-RIZ004-006-007-MAZ004-011-015-230200-
SOUTHERN NEW ENGLAND
 IN CT

CITY           SKY/WX    TMP DP  RH WIND       PRES   REMARKS
Bradley INTL   CLOUDY    42  37  82 N12       29.88R
Hartford       CLOUDY    44  38  79 NE10      29.86R
Danbury        CLOUDY    46  39  76 E9        29.80R
Wtrbury/Oxford CLOUDY    45  37  76 E9G21     29.81R
Bridgeport     CLOUDY    48  40  73 E13       29.80R
Meriden        CLOUDY    47  38  71 E13G22    29.84R
New Haven      CLOUDY    47  40  76 NE12      29.82R
Chester        CLOUDY    45  41  87 NE10G16   29.83R
Groton         CLOUDY    46  40  79 NE14G23   29.84R
Wilimantic     CLOUDY    44  39  82 NE9G21    29.87R

 IN RI

CITY           SKY/WX    TMP DP  RH WIND       PRES   REMARKS
Providence     DRIZZLE   42  39  89 NE14      29.89R FOG
Block Island   NOT AVBL
Westerly       CLOUDY    46  39  76 NE10G22   29.85R
 IN MA

CITY           SKY/WX    TMP DP  RH WIND       PRES   REMARKS
Boston         CLOUDY    40  38  93 NE17G25   29.93S WCI  31
Worcester      FOG       34  33  96 NE12G24   29.88R VSB 1/4 WCI  25
Westfield      CLOUDY    40  36  86 NE8       29.90R WCI  34
Provincetown   CLOUDY    42  38  85 E16G26    29.91R
Nantucket      CLOUDY    44  39  82 E20G26    29.85S
$$

ANZ330-335-338-340-345-350-353-355-230200-
COASTAL MARINE OBSERVATIONS


STATION/POSITION TIME  SKY/WX   TEMP    WIND        PRES    VSBY  WAVE
                                AIR SEA DIR/SP/G                  HT/PER
                 (UTC)          (F)     (DEG/KT/KT) (MB)    (MI)  (FT/S)
NY HARB ENTRANCE 2350            45 43   70/ 23/ 29 1005.8          5/12
20 S FIRE ISLAND 2350            47 45   70/ 23/ 27 1006.0          6/ 5
GREAT SOUTH BAY  NOT AVBL
23 SSW MONTAUK P 2350            46 47   70/ 23/ 31 1008.3          6/ 5
15 E BARNEGAT LI 0030               47                N/A           7/ 6
HUDSON CANYON    2350            51 52              1004.2          7/12
KINGS POINT      0030            45 40              1007.7
EXECUTION ROCKS  0045            42      70/ 14/ 17   N/A
CENTRAL LI SOUND 0015            45      70/ 14/ 16   N/A           2/ 3
EASTERN LI SOUND NOT AVBL
ROBBINS REEF     0030            47      70/  5/  7 1007.6
$$


>>>>>>>>>>>>>>>>>>>>>>>>>>>> KEY <<<<<<<<<<<<<<<<<<<<<<<<<<<
>                                                          <
>     SKY/WX - Sky Condition/Present Weather               <
>     TMP    - Temperature in Fahrenheit                   <
>     DP     - Dew Point in Fahrenheit                     <
>     RH     - Relative Humidity in Percent                <
>     WIND   - Direction (from) and Speed in MPH           <
>     PRES   - Mean Sea Level Pressure (inches of Hg)      <
>     WCI    - Wind Chill Index                            <
>     VSB    - VISIBILITY IN MILES                         <
>     HX     - HEAT INDEX                                  <
>     TC     - TEMPERATURE IN CELSIUS                      <
>     VRB    - VARIABLE WIND DIRECTION                     <
>                                                          <
>>>>>>>>>>>>>>>>>>>>>>>>>>>> KEY <<<<<<<<<<<<<<<<<<<<<<<<<<<




USA.gov is the U.S. government's official web portal to all federal, state and local government web resources and services.